Date,TemperatureHighF,TemperatureAvgF,TemperatureLowF,DewpointHighF,DewpointAvgF,DewpointLowF,HumidityHigh,HumidityAvg,HumidityLow,PressureMaxIn,PressureMinIn,WindSpeedMaxMPH,WindSpeedAvgMPH,GustSpeedMaxMPH,PrecipitationSumIn
2013-2-1,38,34,30,32,30,27,94,86,77,0.00,40.00,14,10,22,0.00
2013-2-2,34,30,25,30,28,23,95,90,83,0.00,40.00,11,7,14,0.00
2013-2-3,31,28,25,28,26,23,94,91,84,0.00,40.00,11,7,16,0.00
2013-2-4,38,32,28,30,27,25,95,84,69,0.00,40.00,10,5,13,0.00
2013-2-5,39,32,28,31,28,25,90,83,64,0.00,40.00,12,7,14,0.00
2013-2-6,37,32,26,31,28,23,94,83,69,0.00,40.00,18,9,25,0.00
2013-2-7,38,29,22,28,23,19,91,79,60,0.00,40.00,21,10,24,0.00
2013-2-8,35,32,27,31,26,20,93,79,68,0.00,40.00,24,13,29,0.00
2013-2-9,33,29,26,26,24,21,91,81,65,0.00,40.00,19,9,24,0.00
2013-2-10,32,28,18,25,17,11,94,65,47,0.00,40.00,32,17,40,0.00
2013-2-11,30,21,11,21,13,7,82,72,53,0.00,40.00,12,6,15,0.00
2013-2-12,33,26,17,28,19,12,85,76,68,0.00,40.00,13,8,16,0.00
2013-2-13,38,33,27,30,26,21,81,75,70,0.00,40.00,20,13,28,0.00
2013-2-14,40,32,27,28,26,23,90,79,59,0.00,40.00,15,9,21,0.00
2013-2-15,41,32,22,31,26,19,91,79,63,0.00,40.00,13,7,17,0.00
2013-2-16,43,32,23,32,26,20,91,78,57,0.00,40.00,16,6,19,0.00
2013-2-17,40,33,28,29,23,12,88,68,33,0.00,40.00,24,13,33,0.00
2013-2-18,35,29,22,23,20,18,85,71,52,0.00,40.00,19,8,23,0.00
2013-2-19,39,29,23,29,22,16,85,72,54,0.00,40.00,19,12,22,0.00
2013-2-20,32,29,27,29,25,19,90,82,71,0.00,40.00,15,9,21,0.00
2013-2-21,30,25,19,22,20,16,88,78,63,0.00,40.00,14,10,18,0.00
2013-2-22,35,29,20,28,23,18,92,80,62,0.00,40.00,19,12,28,0.00
2013-2-23,31,26,19,27,22,12,92,82,60,0.00,40.00,30,14,42,0.00
2013-2-24,29,21,5,21,14,2,89,75,62,0.00,40.00,14,8,18,0.00
2013-2-25,31,21,7,26,16,4,88,79,60,0.00,40.00,18,9,23,0.00
2013-2-26,31,25,17,22,19,15,91,78,55,0.00,40.00,14,9,19,0.00
2013-2-27,33,21,9,22,15,5,88,76,54,0.00,40.00,13,6,15,0.00
2013-2-28,37,26,16,29,20,12,94,77,56,0.00,40.00,17,7,19,0.00